Flag for United Arab Emirates Weather past 2 weeks in Abu Dhabi, Abu Dhabi, United Arab Emirates

Now
88 °F

Sunny.


Feels Like: 96 °F
Forecast: 78 / 91 °F
Wind: 8 mph from Southwest

Location: Abu Dhabi Bateen Airport


UV Index: 10 (Very high)

Visibility: 10 mi


Pressure: 29.89 "Hg

Humidity: 62%

Dew point: 73 °F

Location of Abu DhabiLocation

Historic Weather in Abu Dhabi

°F

Abu Dhabi temperature yesterday

Maximum temperature yesterday: 104 °F (at 3:00 PM)
Minimum temperature yesterday: 79 °F (at 5:00 AM)
Average temperature yesterday: 90 °F

Past Weeks' High & Low Weather Summary

 TemperatureHumidityPressure
High104 °F (Apr 15, 1:00 PM)89% (Apr 19, 4:00 AM)32.69 "Hg (Apr 19, 4:00 AM)
Low73 °F (Apr 11, 4:00 AM)9% (Apr 10, 1:00 PM)29.71 "Hg (Apr 17, 4:00 PM)
Average87 °F47%29.83 "Hg
* Reported Apr 10 9:00 AM — Apr 25 9:00 AM, Abu Dhabi, Weather by CustomWeather, © 2014

Note: Actual official high and low records may vary slightly from our data, if they occured in-between our weather recording intervals... More about our weather records

Advertising

Historic Weather Conditions — Data for Previous 24 hours

 ConditionsComfort  
Time TempWeatherWind HumidityBarometerVisibility
9:00 AM
Apr 25
88 °FPassing clouds.5 mph52%29.89 "HgN/A
8:00 AM86 °FClear.2 mph62%29.86 "Hg6 mi
7:00 AM82 °FClear.No wind79%29.83 "Hg6 mi
6:00 AM81 °FSunny.2 mph84%29.80 "Hg10 mi
5:00 AM82 °FPassing clouds.3 mph79%29.77 "HgN/A
4:00 AM82 °FClear.2 mph79%29.77 "Hg10 mi
3:00 AM82 °FPassing clouds.3 mph74%29.77 "HgN/A
2:00 AM84 °FClear.5 mph66%29.77 "Hg10 mi
1:00 AM86 °FClear.3 mph59%29.77 "Hg10 mi
12:00 AM86 °FPassing clouds.3 mph55%29.77 "HgN/A
11:00 PM
Apr 24
90 °FClear.6 mph41%29.80 "Hg10 mi
10:00 PM90 °FClear.No wind43%29.80 "Hg10 mi
9:00 PM90 °FClear.2 mph43%29.77 "Hg10 mi
8:00 PM91 °FClear.6 mph34%29.77 "Hg10 mi
7:00 PM99 °FClear.13 mph15%29.77 "Hg10 mi
6:00 PM102 °FSunny.9 mph12%29.74 "Hg10 mi
5:00 PM104 °FSunny.12 mph11%29.74 "Hg10 mi
4:00 PM104 °FSunny.15 mph10%29.77 "Hg10 mi
3:00 PM104 °FPassing clouds.10 mph11%29.77 "HgN/A
2:00 PM86 °FPassing clouds.12 mph27%29.77 "HgN/A
1:00 PM102 °FPassing clouds.7 mph20%29.80 "HgN/A
12:00 PM99 °FPassing clouds.9 mph24%29.83 "HgN/A
11:00 AM97 °FClear.6 mph25%29.86 "Hg6 mi
10:00 AM93 °FClear.6 mph30%29.86 "Hg6 mi
Weather by CustomWeather, © 2014

See weather overview